Regional Weather Roundup
Issued by NWS

Home | Current Version | Previous Version | Text Only | Print | Product List | Glossary On
Versions: 1 2 3 4 5 6 7 8 9 10 11 12 13 14 15 16 17 18 19 20 21 22 23 24 25 26 27 28 29 30 31 32 33 34 35 36 37 38 39 40 41 42 43 44 45 46 47 48 49 50
000
ASCA42 TJSJ 261210
RWRPR
PUERTO RICO/U.S. VIRGIN ISLANDS HOURLY WEATHER ROUNDUP
NATIONAL WEATHER SERVICE SAN JUAN PR
800 AM AST THU APR 26 2018

PRZ001>002-007>008-010-261300-
PUERTO RICO

CITY           SKY/WX    TMP DP  RH WIND       PRES   REMARKS
SAN JUAN LMM   MOSUNNY   79  75  89 NE8       30.01R
AGUADILLA      SUNNY    N/A N/A N/A E3        30.02R
CEIBA          PTSUNNY   81  79  94 SE12      30.03
$$

VIZ001>002-261300-
U.S. VIRGIN ISLANDS

CITY           SKY/WX    TMP DP  RH WIND       PRES   REMARKS
CHARLOTTE AMA  PTSUNNY   77  75  94 E13       30.03
CHRISTIANSTED  PTSUNNY   81  77  89 E17       30.02
$$

HOURLY WEATHER ROUNDUP FOR THE NEWS MEDIA

CITY           SKY/WX    TMP DP  RH WIND       PRES   REMARKS
ORLANDO        PTSUNNY   64  60  87 SW6       29.92R
NEW YORK       FAIR      57  49  74 W14       29.69R
NEWARK         FAIR      58  49  72 W17       29.69R
CHICAGO        FAIR      38  31  76 CALM      29.96R
HARTFORD       CLOUDY    54  53  97 S9        29.59R
BOSTON         LGT RAIN  52  52 100 SE5       29.58  VSB 1
DALLAS         FAIR      48  44  86 W6        30.05R
PHILADELPHIA   FAIR      52  38  58 NW15      29.78R
LOS ANGELES    CLOUDY    56  51  84 W5        30.00S
WASHINGTON DC  PTSUNNY   51  40  65 NW12      29.87R


USA.gov is the U.S. government's official web portal to all federal, state and local government web resources and services.